This is the latest recevied weather packets stored in our database for station/object OK3MS-5. If no packets are shown the sender has not sent any weather packets the latest 10 day(s).
| Time | Temp. | Humidity | Pressure | Rain* | Wind** | Luminosity | Snow |
|---|---|---|---|---|---|---|---|
| 1777637703 | 17.22° C | 41% | 1025.8 hPa | 0 mm | - | 731 W/m² | - |
| 1777637404 | 17.22° C | 40% | 1026 hPa | 0 mm | - | 776 W/m² | - |
| 1777637104 | 18.33° C | 40% | 1025.8 hPa | 0 mm | - | 840 W/m² | - |
| 1777636804 | 18.33° C | 42% | 1025.8 hPa | 0 mm | - | 824 W/m² | - |
| 1777636505 | 17.78° C | 39% | 1026 hPa | 0 mm | - | 446 W/m² | - |
| 1777636203 | 16.67° C | 43% | 1026.2 hPa | 0 mm | - | 786 W/m² | - |
| 1777635903 | 16.11° C | 45% | 1026.5 hPa | 0 mm | - | 182 W/m² | - |
| 1777635605 | 15.56° C | 46% | 1026.6 hPa | 0 mm | - | 318 W/m² | - |
| 1777635303 | 15.56° C | 46% | 1026.6 hPa | 0 mm | - | 355 W/m² | - |
| 1777635006 | 16.11° C | 46% | 1026.4 hPa | 0 mm | - | 293 W/m² | - |
| 1777634705 | 16.67° C | 44% | 1026.6 hPa | 0 mm | - | 886 W/m² | - |
| 1777634403 | 16.67° C | 42% | 1026.6 hPa | 0 mm | - | 870 W/m² | - |
| 1777634103 | 15.56° C | 43% | 1026.8 hPa | 0 mm | - | 857 W/m² | - |
| 1777633804 | 15.56° C | 45% | 1027 hPa | 0 mm | - | 225 W/m² | - |
| 1777633504 | 15° C | 47% | 1027.1 hPa | 0 mm | - | 201 W/m² | - |
| 1777633206 | 15° C | 48% | 1027.1 hPa | 0 mm | - | 185 W/m² | - |
| 1777632903 | 15° C | 46% | 1027 hPa | 0 mm | - | 162 W/m² | - |
| 1777632604 | 15.56° C | 46% | 1027.1 hPa | 0 mm | - | 246 W/m² | - |
| 1777632303 | 15.56° C | 46% | 1027.2 hPa | 0 mm | - | 227 W/m² | - |
| 1777632006 | 15.56° C | 44% | 1027.1 hPa | 0 mm | - | 887 W/m² | - |
| 1777631704 | 15.56° C | 45% | 1027.1 hPa | 0 mm | - | 821 W/m² | - |
| 1777631405 | 15.56° C | 45% | 1027.1 hPa | 0 mm | - | 211 W/m² | - |
| 1777631106 | 15.56° C | 45% | 1027.2 hPa | 0 mm | - | 775 W/m² | - |
| 1777630805 | 14.44° C | 47% | 1027.5 hPa | 0 mm | - | 805 W/m² | - |
| 1777630504 | 14.44° C | 48% | 1027.6 hPa | 0 mm | - | 619 W/m² | - |
* Rain latest hour (hover to see other rain measurements)
** Current wind speed in m/s (hover to see current wind gust speed)